This demonstration page uses our WeatherBlox Daily Observations layout. Learn more.

Left ArrowRight Arrow

Hourly Observations for February 6, 2016

Temp ( °F °C ) Dew Point ( °F °C ) Humidity (%) Winds ( mph kmh ) Pressure ( in mb ) Visibility ( mi km ) Precip ( " mm )
12:59 am 00:59 Clear 37 2.8 22 -5.6 54 54 NNE 10 17 30.41 1030 10 16 0.00 0.00
1:59 am 01:59 Clear 37 2.8 23 -5 57 57 NNE 8 13 30.42 1030 10 16 0.00 0.00
2:59 am 02:59 Clear 36 2.2 24 -4.4 62 62 NNE 8 13 30.42 1030 10 16 0.00 0.00
3:59 am 03:59 Clear 35 1.7 26 -3.3 70 70 NNW 3 6 30.43 1030 10 16 0.00 0.00
4:59 am 04:59 Clear 33 0.6 26 -3.3 75 75 Calm 30.44 1031 10 16 0.00 0.00
5:59 am 05:59 Mostly Clear 33 0.6 27 -2.8 78 78 Calm 30.45 1031 10 16 0.00 0.00
6:59 am 06:59 Partly Cloudy 33 0.6 26 -3.3 75 75 NNW 3 6 30.48 1032 10 16 0.00 0.00
7:59 am 07:59 Mostly Cloudy 35 1.7 29 -1.7 78 78 Calm 30.48 1032 10 16 0.00 0.00
8:59 am 08:59 Mostly Cloudy 39 3.9 24 -4.4 55 55 NE 3 6 30.49 1032 10 16 0.00 0.00
9:59 am 09:59 Mostly Cloudy 41 5 25 -3.9 53 53 NW 3 6 30.49 1032 10 16 0.00 0.00
10:59 am 10:59 Mostly Cloudy 42 5.6 25 -3.9 51 51 NNE 6 9 30.48 1032 10 16 0.00 0.00
11:59 am 11:59 Cloudy 42 5.6 25 -3.9 51 51 N 6 9 30.45 1031 10 16 0.00 0.00
12:59 pm 12:59 Mostly Cloudy 43 6.1 24 -4.4 47 47 Calm 30.41 1030 10 16 0.00 0.00
1:59 pm 13:59 Mostly Cloudy 43 6.1 25 -3.9 49 49 NE 5 7 30.37 1028 10 16 0.00 0.00
2:59 pm 14:59 Mostly Cloudy 44 6.7 25 -3.9 47 47 NE 5 7 30.36 1028 10 16 0.00 0.00
3:59 pm 15:59 Partly Cloudy 44 6.7 24 -4.4 45 45 Calm 30.35 1028 10 16 0.00 0.00
4:59 pm 16:59 Partly Cloudy 42 5.6 22 -5.6 45 45 NE 3 6 30.36 1028 10 16 0.00 0.00
5:59 pm 17:59 Partly Cloudy 36 2.2 24 -4.4 62 62 Calm 30.36 1028 10 16 0.00 0.00
6:59 pm 18:59 Partly Cloudy 36 2.2 23 -5 59 59 ESE 5 7 30.35 1028 10 16 0.00 0.00
7:59 pm 19:59 Mostly Clear 34 1.1 25 -3.9 70 70 SSE 5 7 30.35 1028 10 16 0.00 0.00
8:59 pm 20:59 Clear 32 0 25 -3.9 75 75 E 3 6 30.34 1028 10 16 0.00 0.00
9:59 pm 21:59 Clear 31 -0.6 25 -3.9 79 79 ESE 3 6 30.31 1026 9 14 0.00 0.00
10:59 pm 22:59 Mostly Clear 31 -0.6 26 -3.3 82 82 Calm 30.29 1026 10 16 0.00 0.00
11:59 pm 23:59 Mostly Cloudy 32 0 26 -3.3 79 79 Calm 30.27 1025 10 16 0.00 0.00

Powered by AerisWeather